Details From PAJN - Juneau Intl
To PASI - SITKA ROCKY GUTIERREZ
Flight Number -
Tags generated
Created
Modified
Stats Distance 84 nm / 156 km
Max Altitude 10,100 ft / 3,078 m
Waypoints 3
Social Downloads 1
Likes 0
Share VATSIM

Download

Looking for another format? Having issues loading an existing format? Contact us
Advertisement - Login to hide

Notes

Basic altitude profile: - Ascent Rate: 2500ft/min - Ascent Speed: 250kts - Cruise Altitude: 35000ft - Cruise Speed: 420kts - Descent Rate: 1500ft/min - Descent Speed: 250kts Options: - Use NATs: yes - Use PACOTS: yes - Use low airways: yes - Use high airways: yes

Route

PAJN HOODS PASI

ID Type Via Altitude Latitude Longitude Leg Dist Tot Dist Heading (true) Name
O PAJN APT - 0 ft / 0 m 58.35496˚ -134.57628˚ - 0 nm - Juneau Intl
HOODS FIX - 10,100 ft / 3,078 m 57.74293˚ -134.68157˚ 36 nm 36 nm 185° / 185° -
O PASI APT - 0 ft / 0 m 57.04713˚ -135.36160˚ 47 nm 84 nm 208° / 207° SITKA ROCKY GUTIERREZ

Altitude Profile

Advertisement - Login to hide

PAJN

Details ICAO PAJN (JNU)
Name Juneau Intl
Region USA (Alaska)
Timezone America/Juneau (UTC-9.0)
Stats Elevation 21 ft / 6 m (AMSL)
Location 58.354964° -134.576278°
Runways 1
Magnetic Variation 19.146° E

METAR

PAJN 171953Z 07008KT 10SM FEW005 BKN035 OVC080 02/02 A2970

Decode

TAF

PAJN 171740Z 1718/1818 10010KT P6SM -SHRA SCT025 BKN035 OVC060 WS020/22020KT TEMPO 1718/1722 6SM -SHRASN FEW005 BKN025 OVC035 FM172200 10008KT P6SM -SHRASN SCT025 OVC035 FM180300 09005KT P6SM VCSH SCT025 OVC040 FM181200 08004KT P6SM OVC050

Decode

Departure Runways

ID Width Length Bearing (true) Bearing (mag) Surface Threshold Offset Overrun Length
08 150 ft / 46 m 8,430 ft / 2,570 m 104.87° 85.72° Asphalt 0 ft / 0 m 450 ft / 137 m
26 150 ft / 46 m 8,430 ft / 2,570 m 284.90° 265.75° Asphalt 0 ft / 0 m 225 ft / 69 m

PASI

Details ICAO PASI (SIT)
Name SITKA ROCKY GUTIERREZ
Region USA (Alaska)
Timezone America/Juneau (UTC-9.0)
Stats Elevation 21 ft / 6 m (AMSL)
Location 57.047128° -135.361597°
Runways 1
Magnetic Variation 18.749° E

METAR

PASI 171953Z 32004KT 5SM BR BKN021 BKN030 OVC055 03/02 A2973

Decode

TAF

PASI 171729Z 1718/1818 18011KT P6SM -SHRA VCTS SCT030CB BKN040 OVC050 TEMPO 1718/1721 5SM -TSRAPL BKN025CB OVC040 FM172200 17010KT 6SM -SHRA SCT030 OVC040 FM180300 12006KT P6SM VCSH BKN050 FM181000 09006KT 6SM -SHRA BKN030 BKN050

Decode

Destination Runways

ID Width Length Bearing (true) Bearing (mag) Surface Threshold Offset Overrun Length
11 150 ft / 46 m 6,485 ft / 1,977 m 135.57° 116.82° Asphalt 0 ft / 0 m 0 ft / 0 m
29 150 ft / 46 m 6,485 ft / 1,977 m 315.59° 296.84° Asphalt 0 ft / 0 m 0 ft / 0 m

Approach Navaids

Runway Type Ident Frequency Range Bearing (true) Bearing (mag) Slope Elevation
11 Localiser ISIT 108.90 MHz 18 nm / 33 km 143.51° 124.76° - 15 ft / 5 m (AMSL)
11 DME ISIT 108.90 MHz 18 nm / 33 km - - - 34 ft / 10 m (AMSL)

Popular Alternatives